Regional Weather Roundup
Issued by NWS

Home | Current Version | Previous Version | Text Only | Print | Product List | Glossary Off
Versions: 1 2 3 4 5 6 7 8 9 10 11 12 13 14 15 16 17 18 19 20 21 22 23 24 25 26 27 28 29 30 31 32 33 34 35 36 37 38 39 40 41 42 43 44 45 46 47 48 49 50

581
ASUS43 KFSD 212310
RWRSD

WEATHER ROUNDUP FOR SOUTH DAKOTA
NATIONAL WEATHER SERVICE SIOUX FALLS SD
500 PM CST TUE FEB 21 2017

NOTE: "FAIR" INDICATES FEW OR NO CLOUDS BELOW 12,000 FEET WITH NO
SIGNIFICANT WEATHER AND/OR OBSTRUCTIONS TO VISIBILITY.


SDZ001>005-009-010-012>017-220000-
NORTHWEST AND NORTH CENTRAL SOUTH DAKOTA

CITY           SKY/WX    TMP DP  RH WIND       PRES   REMARKS
BUFFALO          N/A     66  30  26 W23G29    29.55F
FAITH            N/A     65  34  31 W13       29.61F
MOBRIDGE       SUNNY     60  35  39 SE9       29.61F
$$

SDZ012>016-024>037-041>051-057-063-072>074-220000-
SOUTHWEST AND SOUTH CENTRAL SOUTH DAKOTA

CITY           SKY/WX    TMP DP  RH WIND       PRES   REMARKS
RAPID CTY ARPT SUNNY     70  27  20 W22G36    29.66S
PIERRE         SUNNY     69  34  27 SE6       29.63F
CUSTER         CLOUDY    56  23  27 W15G38    29.77F
ELLSWORTH AFB  SUNNY     69  28  21 W32G41    29.65F
PHILIP         PTSUNNY   75  30  19 W20G29    29.63F
PINE RIDGE     SUNNY     70  29  21 W22G36    29.75R
SPEARFISH      FAIR      64  27  24 W23G35    29.67F
WINNER         FAIR      76  34  21 NW10G22   29.67F
$$

SDZ004>011-016>023-039-040-220000-
NORTHEAST SOUTH DAKOTA

CITY           SKY/WX    TMP DP  RH WIND       PRES   REMARKS
ABERDEEN       SUNNY     63  37  38 S3        29.66F
WATERTOWN      SUNNY     57  42  57 SW8       29.69S
BROOKINGS      SUNNY     62  41  46 SW8       29.70S
SISSETON         N/A     60  44  55 W5        29.66S
$$

SDZ017-020-022-023-036>040-048>070-220000-
SOUTHEAST SOUTH DAKOTA

CITY           SKY/WX    TMP DP  RH WIND       PRES   REMARKS
SIOUX FALLS    MOSUNNY   67  39  35 W5        29.71S
HURON          SUNNY     68  35  29 SW3       29.66F
CHAMBERLAIN    SUNNY     70  40  33 E6        29.66F
MITCHELL       SUNNY     69  36  29 W6        29.69F
YANKTON        SUNNY     73  37  27 W14       29.69R
$$

ABBREVIATIONS USED IN REMARKS
   TC - TEMPERATURE IN CELSIUS
  WCI - WIND CHILL INDEX
   HX - HEAT INDEX
  VSB - VISIBILITY





USA.gov is the U.S. government's official web portal to all federal, state and local government web resources and services.